Location: Ferchesar
(52.6477°N, 12.4298°E)
Time: 07:15:52
(UTC+02:00)

Transit 4A - Pass Details

Date: 01 March 2021
Orbit: 869 x 976 km, 66.8° (Epoch: 12 April)

Event Time Altitude Azimuth Distance (km) Brightness Sun altitude
Rises 20:49:54 0° 315° (NW) 3,579 12.1 -27.5°
Reaches altitude 10° 20:53:01 10° 300° (WNW) 2,612 11.2 -27.9°
Maximum altitude 20:57:25 22° 253° (WSW) 1,887 9.9 -28.5°
Drops below altitude 10° 21:01:45 10° 206° (SSW) 2,548 10.1 -29.1°
Enters shadow 21:01:49 10° 205° (SSW) 2,566 10.2 -29.1°
Sets 21:04:45 0° 191° (S) 3,468 - -29.5°
